{"data":{"norad_id":61535,"epoch":"2026-09-21T12:01:24.523392Z","epoch_age_seconds":105594,"freshness":"FRESH","line1":"1 61535U 24184D   26264.50097828 -.00000692  00000+0 -85890-6 0  9992","line2":"2 61535  53.1593 350.8433 0000855  67.1236 292.9872 15.69704075111171","mean_motion":15.69704075,"eccentricity":8.55e-5,"inclination_deg":53.1593,"raan_deg":350.8433,"arg_perigee_deg":67.1236,"mean_anomaly_deg":292.9872,"bstar":-8.589e-7,"rev_number":11117,"period_min":91.737036485683,"perigee_km":359.16761675482,"apogee_km":360.31979435547,"semimajor_km":6737.8807055551,"source":"CELESTRAK","updated_at":"2026-09-22T09:00:49.364261Z"}}